Terug naar catalogus

STARLINK-36413

ActiefCommunicatieVLEO
NORAD 67338·PAYLOAD·🇺🇸 United States

Gelanceerd Jan 9, 2026 vanaf Cape Canaveral Space Force Station

Loading…

Volgende Passages (komende 24 uur)

TLE

VersSource: CelesTrak SupGP

Epoch: Sep 14, 2026, 20:50 UTC

1 67338C 26003E   26257.86854167  .00042361  00000+0  15347-2 0  2579
2 67338  43.0025 238.9769 0001421 261.5511  76.6371 15.27548775    18

Volg STARLINK-36413 in realtime met AllMySat

Download on the App Store